FLOCK 3P-47 (42032 NORAD) Tracking and Keplerian Element Data

This shows tracking and keplerian element data for the satellite.

Feedback or suggestion? Click here.




ElementValue
Catalog42032
NameFLOCK 3P-47
Epoch Orbit5526
Epoch Day45.60643363
Epoch Year2018
RAAN111.1953
Inclination97.4658
Eccentricity0.0009645
Argument of Perigee85.7722
Mean Anonmoly274.4617
Mean Motion15.23912596
Decay Rate1.394E-05
L11 42032U 17008CN 18045.60643363 .00001394 00000-0 60641-4 0 9994
L22 42032 97.4658 111.1953 0009645 85.7722 274.4617 15.23912596 55260

Live tracking and technical data element details for FLOCK 3P-47 (NORAD 42032). FLOCK 3P-47 can be tracked NOW for your location showing map with azimuth and elevation plus other details from your city location.

Track the satellite on the map from your city or location and see movement details for azimuth, elevation, latitude, longitude, range, height, and movement on the map or in text.







IsCatalogInMostPopularTable: catalog: 42032, numindb: 153
Update: records affected: 1



GetName: 42032 FLOCK 3P-47

Hit Count: updated at: Fri, 16 Nov 2018 09:44:37 GMT